sat.trackr.live / text

‹ back to catalog

ONEWEB-0666

NORAD 55826 · 2023-029AG

PAYLOAD ACTIVE UNKNOWN

§ Identity

Operator
Country
UK
Launch date
2023-03-09
Launch site
AFETR
Launch vehicle
Mass (kg)
RCS (m²)

Purposes: comms

External: N2YO · Heavens-Above · Gunter

§ Orbital elements

Epoch: 2026-05-25T01:52:50.729952Z

Period
109.03 min
Inclination
87.9163°
Eccentricity
0.0002086
Mean motion
13.20772701 rev/d
Perigee alt
1,180.2 km
Apogee alt
1,183.3 km
Semi-major
7,559.9 km
B*
-1.3706e-3
RAAN
279.0821°
Arg perigee
119.1856°
Mean anomaly
240.9486°
Rev number
15,810

§ Raw data

ONEWEB-06661 55826U 23029AG  26145.07836493 -.00000544  00000+0 -13706-2 0  99932 55826  87.9163 279.0821 0002086 119.1856 240.9486 13.20772701158106

JSON: /api/v1/satellites/55826 · /tle

For live sub-satellite position, see the globe view (requires WebGL).

§ Visibility from observer

Set your observer location to see the next 7 days of passes ≥ 10°. The values pass through the URL so the page stays shareable.

No JS? Fill the form by hand. The geolocation button needs JavaScript.